Temp
59 59 59 59 59 59 59 60 60 60 61 61 61 61 61 61 59 57 51 59 60 63 65 63 64 64 65 64 66 66 59 58 61 62 68 76 74 81 86 82 84 84 81 81 79
59 59 59 59 59 59 59 59 60 60 60 60 60 60 60 60 56 52 60 62 64 67 62 58 59 62 61 61 65 62 57 60 66 69 69 76 76 81 80 80 81 81 79 79 78
59 58 59 59 59 59 59 59 59 60 60 60 60 59 59 59 49 56 64 65 67 68 64 62 60 59 57 60 61 61 55 65 66 70 73 74 74 80 79 76 82 82 79 77 76
58 58 58 58 58 58 58 59 59 59 59 59 59 59 59 56 48 63 67 67 67 67 63 58 57 55 53 54 61 55 61 64 69 70 70 70 71 73 77 82 84 84 82 79 76
58 58 58 58 58 58 58 58 58 59 58 58 59 59 56 49 54 63 65 64 65 64 60 57 55 54 51 54 58 55 60 63 67 69 68 70 70 69 72 81 83 82 82 80 79
58 58 57 57 57 57 57 58 57 58 58 58 59 58 52 47 63 63 62 62 63 62 60 59 57 59 54 54 54 59 60 62 66 67 68 65 69 70 77 80 80 81 81 82 80
57 57 57 57 57 57 57 57 57 57 58 59 59 57 48 53 62 63 60 61 63 62 58 62 63 58 57 52 59 58 53 59 62 65 64 67 63 66 76 78 77 77 78 79 79
57 57 57 57 57 57 57 57 57 57 58 59 59 55 47 61 63 61 61 60 60 63 61 62 63 59 55 57 55 52 54 49 61 63 64 65 60 71 77 74 75 78 77 77 77
57 57 56 56 57 56 56 56 57 58 59 59 54 50 49 62 58 65 64 59 59 59 59 64 60 54 52 48 48 50 45 48 54 64 63 62 60 71 75 73 73 77 78 75 75
57 56 56 56 56 56 56 55 58 58 58 58 56 45 54 57 63 64 62 61 57 56 53 53 51 44 45 46 38 44 45 50 50 59 62 61 60 69 71 72 73 77 77 75 74
57 56 56 56 56 55 55 57 56 52 51 52 54 52 56 62 66 62 62 58 57 53 45 50 41 35 41 49 52 52 49 49 55 62 58 58 61 64 72 71 72 76 76 74 73
56 56 56 55 55 55 55 58 60 62 50 56 55 54 58 60 54 59 63 53 51 46 51 44 35 43 50 50 49 49 47 50 57 62 59 58 58 64 69 71 74 74 74 72 72
55 56 56 55 54 53 57 59 66 65 50 53 56 55 59 59 54 55 59 56 50 47 48 43 45 47 46 48 47 46 41 50 51 58 60 58 56 60 68 71 73 73 75 74 72
55 55 55 54 54 58 59 64 66 66 45 49 54 58 59 59 51 62 61 56 51 46 47 46 47 43 45 46 51 43 50 53 52 52 48 60 49 57 65 66 69 73 71 71 72
55 55 54 53 56 59 61 64 65 61 34 53 55 67 62 55 56 55 61 55 48 48 47 45 45 42 44 48 54 49 55 54 54 52 53 54 53 59 62 62 68 72 71 72 73
55 54 54 54 54 60 62 63 61 42 32 46 56 54 53 53 52 55 54 57 56 49 49 48 54 49 48 53 56 56 53 53 53 53 45 53 54 55 59 64 69 75 72 71 73
54 54 54 58 61 61 62 59 44 35 52 43 48 53 50 47 50 49 48 48 46 40 42 47 47 51 51 47 53 55 50 40 41 43 44 53 52 59 65 68 72 72 73 70 72
52 52 54 60 62 61 60 53 37 43 45 53 52 50 45 46 47 49 47 45 50 48 44 41 39 50 55 53 51 53 52 45 35 39 46 51 49 60 64 71 73 78 78 73 71
51 57 62 63 59 60 58 43 41 46 51 48 50 46 47 47 44 46 45 46 51 51 40 42 42 55 57 60 59 52 48 55 45 46 49 52 55 62 65 65 68 71 70 71 72
49 54 62 62 61 61 54 42 46 51 52 51 41 46 40 41 44 43 45 51 44 50 54 49 42 53 56 60 59 57 60 47 48 39 40 46 49 54 59 62 64 67 70 72 72
53 59 64 60 61 57 42 44 47 54 53 48 46 44 44 43 46 46 43 48 48 50 53 52 47 48 55 52 52 53 52 51 50 46 44 41 49 57 57 59 61 65 68 72 72
48 54 63 61 52 47 44 44 46 50 53 51 51 48 45 46 44 45 36 42 47 53 46 52 48 45 49 58 62 60 55 55 48 43 48 48 49 59 59 60 61 64 67 71 71
46 49 60 59 40 41 44 43 47 46 46 47 46 50 49 45 40 46 47 49 51 51 46 51 46 44 45 53 56 54 55 55 52 50 46 47 50 60 60 60 62 62 65 69 72
50 46 51 50 47 41 38 40 40 48 45 46 46 49 44 43 48 43 43 49 51 52 54 50 47 45 43 48 53 49 53 55 54 48 48 52 54 55 58 58 60 62 64 67 70
47 41 42 41 43 40 40 40 38 37 44 46 45 44 40 37 42 43 44 46 49 51 52 49 44 47 51 52 53 55 54 53 52 52 50 53 53 55 53 56 57 61 62 64 66
46 44 46 42 41 41 40 39 37 40 39 40 39 41 41 37 41 39 42 42 39 50 46 48 40 44 46 53 53 53 57 57 56 54 54 53 53 55 55 57 55 52 58 62 64
46 46 44 41 41 40 41 40 39 41 44 45 42 39 39 44 47 47 47 46 46 44 40 43 43 44 41 50 52 46 55 57 57 60 59 52 58 55 50 50 49 48 48 48 48
MSLP
1020.22 1019.87 1019.47 1019.04 1018.69 1018.32 1018.02 1017.72 1017.40 1017.14 1016.86 1016.60 1016.36 1016.06 1015.86 1015.63 1015.46 1015.27 1014.63 1013.89 1013.74 1013.50 1013.38 1013.19 1012.81 1012.41 1012.26 1011.57 1011.20 1010.90 1009.34 1006.79 1005.92 1005.53 1004.44 1004.51 1004.14 1003.92 1003.39 1003.51 1003.72 1003.78 1004.22 1004.88 1005.79
1020.01 1019.72 1019.28 1018.86 1018.45 1018.13 1017.76 1017.46 1017.16 1016.84 1016.56 1016.37 1016.16 1015.93 1015.72 1015.54 1015.15 1014.38 1013.66 1013.45 1013.33 1012.92 1012.84 1012.95 1012.50 1012.30 1011.82 1011.52 1010.90 1009.90 1008.23 1006.80 1006.48 1005.76 1005.00 1004.40 1003.99 1003.30 1003.21 1003.03 1003.26 1003.68 1004.62 1005.26 1006.11
1019.93 1019.55 1019.11 1018.69 1018.28 1017.92 1017.59 1017.26 1016.90 1016.55 1016.26 1016.08 1015.95 1015.78 1015.52 1015.37 1014.79 1013.25 1013.00 1012.94 1012.78 1012.54 1012.71 1012.78 1012.86 1012.42 1011.92 1011.37 1010.62 1009.46 1007.65 1007.41 1006.73 1006.12 1005.50 1004.62 1004.18 1003.62 1002.94 1002.45 1002.42 1002.87 1004.12 1005.12 1005.85
1019.84 1019.32 1018.88 1018.50 1018.12 1017.74 1017.42 1017.03 1016.68 1016.35 1016.12 1015.95 1015.79 1015.51 1015.26 1015.09 1014.14 1012.64 1012.60 1012.68 1012.58 1012.35 1012.56 1012.68 1012.64 1012.34 1011.82 1010.97 1010.50 1009.68 1008.53 1007.92 1006.94 1006.38 1005.69 1004.92 1004.66 1003.71 1003.13 1002.40 1002.63 1003.18 1003.82 1004.82 1005.35
1019.65 1019.16 1018.70 1018.28 1017.88 1017.50 1017.20 1016.84 1016.54 1016.22 1016.05 1015.83 1015.60 1015.50 1015.38 1014.76 1013.15 1012.75 1012.62 1012.69 1012.58 1012.32 1012.15 1012.26 1012.20 1012.07 1011.50 1011.05 1010.62 1009.62 1008.84 1008.24 1007.43 1006.60 1006.12 1005.35 1004.44 1004.14 1003.20 1002.92 1003.21 1003.47 1003.72 1004.29 1004.83
1019.46 1018.93 1018.42 1017.96 1017.56 1017.22 1016.92 1016.58 1016.31 1016.09 1015.89 1015.71 1015.57 1015.58 1015.48 1014.07 1012.55 1012.71 1012.69 1012.49 1012.38 1012.23 1012.01 1012.09 1011.87 1011.89 1011.53 1011.04 1010.43 1009.51 1008.89 1008.22 1007.35 1006.76 1006.32 1005.61 1004.44 1004.09 1002.45 1002.94 1003.10 1003.42 1003.33 1003.62 1004.34
1019.23 1018.70 1018.18 1017.66 1017.24 1016.88 1016.52 1016.20 1016.00 1015.88 1015.72 1015.57 1015.58 1015.60 1015.25 1013.25 1012.42 1012.50 1012.62 1012.28 1012.18 1012.18 1011.98 1011.79 1011.80 1011.60 1011.34 1011.02 1010.39 1009.76 1008.90 1008.03 1007.25 1006.68 1006.26 1005.74 1004.69 1002.28 1002.80 1002.86 1002.96 1003.28 1003.35 1003.45 1004.03
1018.89 1018.36 1017.82 1017.32 1016.90 1016.55 1016.22 1015.93 1015.73 1015.57 1015.53 1015.50 1015.55 1015.54 1014.07 1012.54 1012.38 1012.05 1012.06 1011.96 1012.10 1012.20 1012.17 1012.10 1011.88 1011.69 1011.39 1011.15 1010.18 1009.57 1008.87 1007.39 1006.40 1006.18 1005.89 1005.68 1002.01 1002.56 1002.90 1002.99 1002.47 1002.94 1003.23 1003.42 1003.86
1018.58 1018.02 1017.51 1017.01 1016.59 1016.28 1015.96 1015.69 1015.28 1015.16 1015.32 1015.38 1015.62 1015.48 1013.17 1012.33 1012.02 1011.20 1011.42 1011.43 1011.70 1012.03 1012.22 1011.97 1012.01 1011.52 1011.47 1010.82 1009.67 1008.76 1007.44 1006.82 1006.09 1005.34 1005.53 1004.66 1002.62 1002.53 1002.57 1002.56 1002.12 1002.67 1002.95 1003.38 1003.68
1018.30 1017.70 1017.15 1016.66 1016.27 1015.98 1015.75 1015.45 1015.12 1015.23 1015.33 1015.41 1015.36 1015.30 1012.76 1011.72 1011.10 1010.88 1011.14 1011.24 1011.37 1011.67 1012.02 1012.10 1011.77 1011.54 1011.25 1010.07 1008.09 1007.26 1007.05 1006.30 1005.42 1004.82 1004.52 1003.53 1003.21 1002.38 1002.22 1002.09 1001.70 1002.36 1002.72 1003.24 1003.52
1017.93 1017.33 1016.79 1016.24 1015.84 1015.64 1015.59 1015.24 1015.17 1015.02 1014.84 1013.98 1013.48 1013.01 1011.74 1011.21 1010.60 1010.46 1010.76 1010.96 1011.04 1011.20 1011.14 1011.48 1011.60 1011.07 1010.46 1009.49 1008.43 1007.41 1006.60 1005.58 1004.87 1004.33 1003.99 1002.93 1003.16 1002.92 1001.96 1001.94 1001.54 1001.81 1002.41 1003.16 1003.67
1017.55 1016.96 1016.34 1015.82 1015.36 1015.09 1015.20 1014.29 1013.56 1013.44 1012.98 1012.46 1012.45 1012.24 1011.47 1011.12 1010.40 1010.12 1010.49 1010.61 1010.56 1010.06 1010.20 1011.06 1011.03 1010.95 1010.25 1009.58 1008.64 1007.39 1006.29 1005.04 1004.38 1003.82 1003.85 1003.29 1002.98 1002.61 1001.80 1001.73 1001.32 1001.69 1002.08 1002.87 1003.82
1017.27 1016.55 1015.90 1015.32 1014.95 1015.00 1014.46 1013.60 1013.08 1013.05 1012.99 1011.75 1011.40 1010.99 1010.42 1010.71 1009.93 1009.61 1010.08 1009.93 1009.85 1009.54 1009.50 1009.67 1009.87 1010.42 1009.97 1008.77 1007.85 1007.45 1006.84 1004.94 1004.04 1003.53 1003.60 1003.00 1002.75 1002.02 1001.35 1001.49 1001.29 1001.48 1001.80 1002.40 1003.03
1016.81 1016.06 1015.42 1014.95 1014.97 1014.33 1013.76 1013.22 1013.07 1013.03 1012.68 1011.28 1010.54 1009.69 1009.83 1009.89 1009.49 1009.23 1009.58 1009.68 1009.45 1009.18 1009.19 1009.12 1009.42 1009.53 1008.89 1007.80 1006.96 1006.31 1006.29 1004.96 1004.11 1003.14 1002.21 1002.09 1000.81 1000.99 1000.66 1000.78 1000.77 1000.83 1001.39 1001.96 1002.67
1016.37 1015.59 1015.04 1014.67 1014.52 1014.08 1013.72 1013.38 1013.32 1013.26 1012.42 1010.68 1009.77 1009.18 1009.06 1009.42 1009.02 1009.06 1009.22 1009.44 1008.97 1008.76 1009.06 1008.19 1008.26 1008.75 1007.72 1006.63 1006.22 1005.46 1004.83 1004.39 1003.74 1002.90 1002.15 1001.66 1000.68 999.87 1000.51 999.98 999.60 999.83 1000.70 1001.42 1002.14
1015.81 1015.10 1014.66 1014.62 1014.50 1013.68 1013.56 1013.48 1013.44 1013.01 1011.56 1010.65 1009.82 1009.20 1009.06 1008.96 1008.95 1008.79 1008.83 1009.11 1008.70 1008.32 1008.04 1007.56 1007.46 1007.30 1006.76 1006.17 1005.54 1005.61 1004.91 1004.10 1003.64 1002.74 1001.86 1000.82 1000.24 999.39 999.06 997.82 998.64 999.23 1000.38 1001.22 1001.86
1015.36 1014.58 1014.33 1014.29 1013.92 1013.72 1013.69 1013.47 1013.15 1012.48 1011.96 1011.07 1009.96 1009.47 1009.30 1009.13 1008.74 1008.68 1008.35 1008.17 1007.92 1007.62 1006.93 1006.59 1006.66 1006.47 1006.20 1005.78 1005.06 1004.67 1003.79 1003.24 1002.78 1002.08 1000.87 1001.04 1000.48 998.61 998.54 998.63 998.56 998.87 999.90 1000.96 1001.61
1015.04 1014.30 1014.31 1013.95 1013.84 1013.83 1013.57 1013.12 1012.73 1012.68 1011.94 1011.27 1010.28 1009.25 1009.14 1009.52 1009.14 1008.63 1008.04 1007.50 1007.28 1007.35 1006.73 1005.92 1005.33 1005.33 1004.82 1004.41 1003.51 1003.36 1002.98 1002.24 1001.72 1001.33 1000.73 1001.15 999.83 998.71 999.08 998.79 998.88 998.91 999.18 1000.58 1001.46
1014.94 1014.37 1014.06 1013.89 1013.78 1013.86 1013.27 1013.07 1013.18 1012.69 1011.92 1011.18 1010.39 1009.65 1009.36 1009.57 1009.63 1008.92 1007.99 1007.47 1006.91 1006.74 1006.55 1005.42 1004.49 1004.22 1003.78 1003.32 1003.08 1002.93 1002.72 1002.60 1002.20 1002.02 1000.78 1000.48 1000.11 999.56 999.32 999.22 999.26 999.26 999.73 1000.38 1001.39
1016.07 1015.13 1014.32 1014.19 1014.03 1013.62 1013.38 1013.75 1013.50 1013.12 1012.44 1011.78 1011.21 1010.77 1010.24 1010.11 1009.48 1009.08 1007.91 1007.29 1007.18 1007.03 1006.49 1005.59 1004.47 1003.75 1003.36 1003.02 1002.75 1002.20 1002.35 1002.60 1002.24 1001.60 1000.58 1000.88 1000.42 1000.00 999.99 999.81 999.80 999.78 999.96 1000.30 1001.26
1016.20 1015.17 1014.52 1014.19 1014.02 1013.89 1014.58 1014.79 1014.24 1013.33 1012.90 1012.24 1011.64 1011.32 1010.86 1010.47 1009.81 1008.88 1008.27 1008.00 1007.50 1006.88 1006.22 1005.79 1004.86 1003.86 1003.27 1002.42 1001.86 1002.11 1001.84 1002.28 1002.30 1002.07 1000.88 1000.74 1000.93 1001.39 1001.23 1000.93 1000.60 1000.43 1000.72 1000.71 1001.11
1017.35 1015.91 1015.13 1014.32 1014.89 1016.01 1015.97 1016.22 1015.46 1014.20 1013.53 1012.71 1012.07 1011.61 1011.18 1010.83 1009.93 1009.26 1009.14 1008.98 1008.76 1007.10 1006.30 1005.87 1004.79 1003.52 1002.72 1002.39 1001.97 1001.84 1001.72 1001.86 1001.76 1002.11 1001.64 1001.21 1001.52 1002.15 1002.20 1002.02 1001.58 1001.09 1000.82 1001.14 1001.42
1018.56 1017.56 1016.10 1015.38 1016.94 1017.43 1017.54 1016.91 1016.21 1015.44 1014.60 1013.76 1013.09 1012.38 1012.19 1011.42 1010.82 1009.88 1009.31 1008.99 1008.77 1007.58 1006.87 1006.13 1004.78 1003.40 1002.90 1002.64 1002.32 1001.84 1001.92 1002.02 1002.13 1002.16 1001.63 1001.19 1001.54 1002.34 1002.71 1002.80 1002.70 1002.28 1001.70 1001.27 1001.72
1019.07 1018.52 1017.85 1017.94 1019.06 1019.11 1018.65 1017.88 1017.07 1016.28 1015.49 1015.09 1014.17 1013.26 1012.99 1011.91 1011.28 1010.42 1010.13 1009.18 1008.91 1008.19 1007.14 1006.53 1005.41 1004.11 1002.84 1002.06 1001.87 1001.65 1001.59 1001.76 1001.62 1001.70 1001.80 1001.68 1001.63 1002.37 1003.10 1003.49 1003.46 1003.12 1002.65 1002.13 1001.94
1020.43 1021.10 1021.14 1019.94 1019.36 1019.76 1019.37 1018.60 1017.80 1017.30 1016.63 1015.87 1014.50 1014.33 1014.36 1012.80 1011.40 1010.42 1010.54 1009.98 1009.42 1008.49 1007.56 1007.06 1005.91 1004.66 1003.49 1002.68 1002.00 1001.18 1001.09 1001.38 1001.28 1001.46 1001.34 1001.54 1002.00 1002.88 1004.02 1004.34 1004.44 1004.12 1003.58 1003.17 1002.99
1022.02 1022.17 1021.56 1021.01 1020.61 1019.92 1019.45 1018.86 1018.46 1017.93 1017.70 1016.27 1015.67 1015.25 1014.77 1013.80 1012.70 1011.37 1011.44 1011.63 1010.75 1009.02 1008.58 1007.84 1006.76 1005.66 1003.89 1002.66 1001.91 1001.19 1000.86 1000.92 1001.19 1001.40 1001.46 1001.85 1002.47 1003.72 1004.80 1005.29 1005.62 1005.63 1005.18 1004.75 1004.63
1023.16 1023.09 1022.56 1021.37 1020.69 1020.22 1019.68 1019.30 1018.66 1018.27 1017.22 1016.66 1016.32 1015.55 1014.24 1013.18 1012.78 1012.02 1011.60 1011.34 1010.88 1010.53 1009.90 1008.89 1007.54 1006.09 1004.23 1003.04 1001.94 1001.64 1000.88 1000.72 1000.82 1000.85 1001.13 1001.65 1002.40 1004.25 1005.56 1006.44 1007.06 1007.17 1007.30 1007.33 1007.14
Wind_Speed
19 19 18 17 17 15 17 15 16 14 14 13 14 13 11 12 13 10 9 8 5 10 7 9 5 2 3 5 4 3 9 16 21 21 11 8 12 8 8 18 7 7 1 2 20
19 19 18 18 17 16 16 16 15 15 13 12 13 12 11 11 12 10 7 10 11 10 4 3 3 5 6 6 7 11 14 20 6 13 9 12 16 11 8 13 15 8 5 13 19
20 19 19 18 17 16 16 16 16 14 13 12 12 12 10 7 3 3 5 8 6 6 4 6 1 2 9 6 11 11 16 15 11 13 12 12 9 9 11 13 13 15 12 17 17
20 20 18 18 17 16 16 15 15 14 13 12 11 10 8 2 2 3 5 3 5 2 9 6 5 6 6 14 10 11 16 11 15 6 6 9 4 5 11 9 7 9 8 15 19
20 20 19 18 17 16 15 14 14 14 12 10 10 6 3 3 4 1 4 6 4 5 8 8 9 8 9 4 13 15 13 16 16 11 7 8 11 7 12 13 7 4 4 16 18
21 20 19 18 17 16 15 14 14 13 10 8 6 3 1 3 3 1 1 3 3 2 8 9 8 8 5 6 11 3 12 18 19 19 11 10 11 6 16 12 12 7 6 12 18
20 20 20 18 17 16 15 14 13 12 7 5 1 2 2 8 2 6 5 3 4 5 7 9 10 10 6 5 6 12 9 12 24 16 10 6 16 26 16 13 9 5 3 9 16
20 19 20 19 18 16 15 14 14 8 4 1 3 1 7 3 6 12 5 3 5 8 9 4 6 10 4 3 5 13 13 13 17 23 11 10 27 21 18 14 18 11 4 9 17
21 21 21 19 19 17 15 14 10 3 4 6 2 1 8 5 5 4 7 2 3 4 5 5 6 5 6 8 11 10 15 22 12 25 15 21 13 14 15 13 20 13 8 10 12
22 21 20 20 18 16 14 8 3 5 3 4 2 4 6 5 4 3 3 2 2 5 4 5 5 4 10 12 17 16 20 14 24 14 30 22 20 9 4 13 19 15 11 12 13
24 21 22 20 17 14 7 2 3 3 3 7 8 7 11 7 6 3 3 4 3 5 5 12 8 7 16 16 13 11 14 17 18 12 20 30 17 21 10 8 14 14 14 14 14
25 24 22 19 16 12 4 2 3 4 9 9 11 10 10 4 4 2 6 3 3 5 8 6 7 11 15 17 19 14 9 13 13 25 15 18 21 17 25 10 12 12 14 16 16
25 24 22 19 12 4 3 4 2 2 4 7 5 5 3 8 5 5 8 3 6 5 7 10 2 3 16 15 21 18 9 8 4 18 15 13 16 17 21 19 13 9 13 17 21
26 25 21 18 3 1 4 3 4 1 3 3 3 3 4 4 5 4 4 4 4 4 4 7 3 8 15 15 19 15 18 10 7 8 11 15 6 17 17 15 14 13 13 15 18
28 25 21 4 2 2 3 4 3 1 2 15 4 2 3 6 7 5 3 4 8 5 4 3 10 14 7 15 18 11 5 8 7 4 6 12 5 9 11 17 19 17 15 15 16
30 26 14 3 1 2 3 2 1 2 4 6 6 11 12 2 2 3 3 4 3 6 11 12 4 4 5 9 16 8 12 5 3 4 9 12 11 11 16 27 20 15 14 14 16
33 26 3 1 5 2 2 0 2 5 6 10 15 15 15 6 4 2 3 6 5 4 2 2 9 5 5 3 8 15 8 5 5 6 5 7 9 4 17 11 16 16 14 15 16
32 13 1 2 3 3 1 2 3 3 7 13 15 19 3 9 7 6 6 5 6 7 6 2 5 13 14 10 8 13 7 2 6 7 9 5 7 3 2 8 10 14 13 15 16
21 3 2 10 1 2 2 3 2 6 10 12 15 8 9 2 3 8 4 6 3 8 3 4 1 5 10 6 11 7 7 1 1 1 8 6 2 3 4 6 6 11 7 11 15
4 3 6 13 1 1 2 3 4 5 11 8 8 7 17 13 11 10 4 2 5 2 7 4 2 5 7 5 2 6 8 6 2 7 7 5 2 5 3 6 4 6 11 8 9
3 2 8 12 2 5 3 4 7 8 12 6 11 11 10 15 16 13 5 6 3 10 3 4 5 4 6 9 10 6 6 2 2 3 1 6 4 2 4 6 5 3 1 5 10
4 2 8 7 5 3 5 10 7 9 13 6 7 6 9 17 11 9 4 9 20 13 3 3 5 4 12 2 12 10 6 7 2 3 3 2 5 5 4 5 7 8 9 4 4
4 3 4 5 6 6 8 6 5 10 10 9 7 9 12 10 9 11 12 9 14 16 11 4 4 2 7 7 4 9 5 3 4 1 1 2 4 7 5 5 5 7 8 9 5
3 6 4 5 3 5 7 4 10 11 7 12 8 6 15 13 10 11 12 7 17 18 13 4 4 5 2 2 4 7 9 8 3 2 5 1 1 6 2 6 7 7 7 8 8
5 3 2 6 6 9 4 5 9 10 8 9 5 13 15 9 18 1 11 17 17 10 10 5 5 8 6 4 4 8 10 10 6 2 4 2 6 3 4 6 7 8 3 3 7
4 5 2 3 6 8 4 4 8 10 9 10 7 18 17 12 15 22 15 12 10 8 12 11 3 3 7 7 7 10 12 11 5 3 6 2 4 4 4 5 8 10 9 6 7
1 0 2 2 4 5 4 7 10 15 9 10 15 19 16 16 15 21 20 18 18 12 8 7 5 5 2 5 6 7 12 11 8 8 6 6 1 10 4 7 5 7 11 11 12
Wind_Direction
347 344 339 336 333 333 329 327 323 320 315 316 319 320 306 316 313 296 260 234 215 265 295 310 271 226 214 225 198 161 229 224 221 222 227 221 212 194 229 231 218 192 227 80 146
346 342 337 336 336 332 330 330 326 322 319 320 319 323 325 329 311 284 240 229 243 275 218 249 232 198 185 218 201 207 226 224 232 231 233 243 220 202 205 200 206 195 100 130 149
346 342 339 335 334 332 332 333 331 327 322 318 321 326 328 336 283 144 178 184 266 278 229 171 298 220 219 197 206 218 235 229 236 235 231 233 221 228 218 216 213 210 166 158 163
343 341 338 333 330 328 327 329 328 331 324 317 319 323 331 323 14 203 160 334 327 341 151 173 165 190 226 222 209 251 236 246 228 239 229 223 310 247 231 212 129 108 142 171 175
344 340 336 333 327 325 324 324 325 326 325 313 311 344 352 314 255 280 307 332 284 162 167 179 184 190 211 222 226 239 244 234 242 245 286 298 244 258 263 253 257 284 205 189 187
342 340 335 330 325 322 319 316 316 319 316 305 331 85 26 278 95 103 356 302 261 234 167 173 203 198 225 229 219 217 234 251 235 242 260 270 269 255 242 250 252 252 241 203 190
338 340 334 329 324 320 315 312 312 312 299 296 336 92 254 245 300 303 283 230 220 211 203 200 190 196 192 258 248 254 264 240 235 228 238 235 252 234 234 264 274 259 271 182 186
337 338 334 327 322 319 317 316 311 300 251 200 136 131 260 247 296 289 248 243 231 238 235 284 203 212 215 292 237 225 238 237 220 225 225 207 234 230 232 251 257 257 226 184 178
337 337 334 327 322 320 320 320 309 178 155 147 137 306 270 311 265 275 202 241 147 178 215 243 190 211 180 221 219 200 219 217 227 217 220 216 242 236 244 233 244 239 218 184 168
337 336 334 327 323 321 323 314 63 120 137 177 210 255 244 338 298 268 174 189 205 129 149 202 174 210 216 200 211 204 217 216 220 200 213 221 229 265 297 221 232 221 208 188 177
337 335 333 327 323 318 316 160 224 184 186 251 282 269 291 315 278 199 164 167 184 203 203 196 211 216 209 212 232 210 210 228 221 217 211 220 217 234 263 230 233 211 196 188 184
335 335 333 330 323 314 194 250 249 307 302 247 257 258 272 247 295 255 158 225 224 246 190 182 227 245 237 210 230 242 252 206 224 218 212 210 227 226 244 252 238 204 183 181 174
334 333 333 330 327 144 243 245 349 206 299 293 220 245 250 194 261 274 186 203 261 266 214 233 199 171 253 206 221 233 255 213 289 190 203 193 216 219 234 242 257 217 210 187 182
333 334 334 329 176 133 261 309 168 96 306 291 269 255 187 254 258 194 209 251 235 272 253 243 232 264 251 219 216 233 212 248 266 189 193 202 187 214 209 214 227 212 196 191 186
331 333 334 291 346 250 0 121 98 164 326 328 290 102 273 266 315 185 178 192 254 249 229 315 176 190 232 211 205 236 211 230 283 257 210 192 251 161 205 215 215 207 191 192 190
332 333 340 98 218 276 132 108 212 244 343 336 312 313 329 246 240 297 198 205 268 258 220 250 217 175 238 217 219 137 241 255 220 225 206 179 226 180 194 209 207 202 183 187 192
332 335 336 221 345 66 168 194 302 42 324 321 322 328 324 305 285 259 256 220 237 295 248 184 205 191 207 234 223 217 185 149 161 188 186 155 206 332 203 208 211 205 183 182 185
330 332 101 247 291 163 201 275 6 359 314 318 318 314 289 25 318 312 283 278 212 229 283 267 183 178 194 200 188 194 196 177 160 182 157 139 212 112 260 207 216 211 203 175 182
328 354 30 346 84 186 292 2 328 329 324 330 323 327 342 6 229 319 250 292 296 198 245 300 98 185 195 183 178 168 207 339 64 31 167 169 196 161 84 135 177 186 192 183 179
345 336 20 341 132 260 34 312 303 305 318 319 334 337 322 345 323 326 274 108 343 329 272 314 290 185 184 183 216 226 147 196 197 167 171 146 176 98 55 68 77 170 200 201 181
357 38 349 348 257 37 58 311 306 325 337 317 315 308 322 334 325 323 278 55 123 334 227 296 285 129 179 209 187 167 188 83 43 324 142 138 134 67 356 339 335 330 270 219 199
335 48 344 336 46 20 355 326 302 335 343 303 302 300 327 332 321 316 332 355 320 333 339 232 300 197 204 255 221 203 188 208 266 144 50 9 118 108 52 14 343 327 313 275 215
7 307 351 6 48 359 336 322 305 350 326 340 302 333 350 326 325 322 332 336 325 345 356 353 246 168 145 131 159 209 182 147 110 36 48 6 113 163 56 30 14 332 304 287 210
356 359 355 39 72 6 345 346 338 335 309 341 291 356 347 324 322 305 336 335 341 332 350 210 283 329 347 119 168 187 188 184 190 162 143 241 220 203 2 29 10 346 307 259 209
10 63 43 337 2 343 328 309 332 349 337 316 293 357 345 302 317 140 342 338 335 0 0 33 3 338 316 255 254 204 181 175 203 126 198 183 232 77 37 31 11 4 13 177 187
13 350 359 293 302 325 344 346 322 331 322 308 299 325 316 284 286 300 313 326 282 326 346 346 4 305 308 340 216 214 192 189 186 182 254 238 245 130 93 77 41 30 37 100 137
41 180 293 308 338 317 352 331 310 321 295 271 306 309 297 295 308 292 281 266 256 282 305 302 327 342 313 16 142 221 215 203 193 206 217 217 292 162 109 77 41 59 63 51 47